DW7959 Weather Reports


Display with metric or nautical units.
time (UTC)temp
F
wind
direction
speed
MPH
gust
MPH
rain 1hr
in
rain 24hr
in
rain mn
in
humidity
%
barometer
mb
20190223233022 72 142 5.0 8.0 0.00 0.01 0.01 100 1017.1
20190223232522 72 158 3.0 6.0 0.00 0.01 0.01 100 1017.0
20190223232021 72 150 3.0 8.0 0.00 0.01 0.01 100 1017.1
20190223231521 72 161 4.0 8.0 0.00 0.01 0.01 100 1017.2
20190223231021 73 161 4.0 7.0 0.00 0.01 0.01 100 1017.3
20190223230521 73 144 3.0 8.0 0.00 0.01 0.01 100 1017.2
20190223230021 73 137 2.0 9.0 0.00 0.01 0.01 100 1017.2
20190223225520 73 158 4.0 9.0 0.01 0.01 0.01 100 1017.2
20190223225021 73 136 6.0 7.0 0.01 0.01 0.01 100 1017.1
20190223224520 73 146 6.0 8.0 0.01 0.01 0.01 100 1017.1
20190223224020 74 161 5.0 9.0 0.01 0.01 0.01 100 1017.0
20190223223520 74 151 3.0 9.0 0.01 0.01 0.01 100 1016.9
20190223223020 74 150 5.0 10.0 0.01 0.01 0.01 100 1017.0
20190223222520 74 150 6.0 11.0 0.01 0.01 0.01 100 1017.0
20190223222019 74 132 8.0 11.0 0.01 0.01 0.01 100 1017.0
20190223221520 74 178 4.0 11.0 0.01 0.01 0.01 100 1017.0
20190223221019 74 191 6.0 10.0 0.01 0.01 0.01 100 1016.9
20190223220519 75 144 2.0 10.0 0.01 0.01 0.01 100 1016.9
20190223220019 75 145 6.0 10.0 0.01 0.01 0.01 100 1017.0
20190223215519 75 154 5.0 9.0 0.00 0.00 0.00 100 1017.0
20190223215019 75 138 6.0 11.0 0.00 0.00 0.00 100 1016.9
20190223214518 76 141 8.0 11.0 0.00 0.00 0.00 100 1017.0
20190223214018 76 121 4.0 10.0 0.00 0.00 0.00 100 1016.9
20190223213518 76 160 5.0 11.0 0.00 0.00 0.00 100 1016.9
20190223213018 76 134 7.0 12.0 0.00 0.00 0.00 100 1016.9
20190223212518 76 155 6.0 12.0 0.00 0.00 0.00 100 1016.9
20190223212018 76 170 7.0 10.0 0.00 0.00 0.00 100 1016.8
20190223211518 76 124 7.0 8.0 0.00 0.00 0.00 100 1016.8
20190223211017 75 146 4.0 10.0 0.00 0.00 0.00 100 1016.9
20190223210517 75 154 5.0 10.0 0.00 0.00 0.00 100 1016.9
20190223210017 76 156 7.0 9.0 0.00 0.00 0.00 100 1016.9
20190223205517 75 177 4.0 8.0 0.00 0.00 0.00 100 1016.9
20190223205017 75 144 2.0 9.0 0.00 0.00 0.00 100 1017.0
20190223204517 75 144 4.0 9.0 0.00 0.00 0.00 100 1017.0
20190223204017 75 165 4.0 9.0 0.00 0.00 0.00 100 1016.9
20190223203517 75 137 4.0 9.0 0.00 0.00 0.00 100 1016.9
20190223203016 75 140 6.0 8.0 0.00 0.00 0.00 100 1017.0
20190223202516 76 153 4.0 7.0 0.00 0.00 0.00 100 1016.9
20190223202016 75 126 5.0 9.0 0.00 0.00 0.00 100 1017.1
20190223201516 76 148 5.0 10.0 0.00 0.00 0.00 100 1017.1
20190223201016 76 142 6.0 10.0 0.00 0.00 0.00 100 1017.0
20190223200516 75 144 6.0 8.0 0.00 0.00 0.00 100 1017.0
20190223200016 76 155 3.0 10.0 0.00 0.00 0.00 100 1017.1
20190223195515 76 161 3.0 10.0 0.00 0.00 0.00 100 1017.1
20190223195016 77 159 7.0 9.0 0.00 0.00 0.00 100 1017.3
20190223194516 77 146 3.0 10.0 0.00 0.00 0.00 100 1017.3
20190223194015 77 163 7.0 11.0 0.00 0.00 0.00 100 1017.3
20190223193515 79 145 6.0 11.0 0.00 0.00 0.00 100 1017.2
20190223193014 79 159 5.0 8.0 0.00 0.00 0.00 100 1017.3
20190223192514 77 140 5.0 10.0 0.00 0.00 0.00 100 1017.4
20190223192015 77 146 5.0 10.0 0.00 0.00 0.00 100 1017.5
20190223191514 78 148 5.0 8.0 0.00 0.00 0.00 100 1017.6
20190223191014 79 160 5.0 9.0 0.00 0.00 0.00 100 1017.7
20190223190514 78 151 5.0 9.0 0.00 0.00 0.00 100 1017.8
20190223190014 77 146 5.0 8.0 0.00 0.00 0.00 100 1017.9
20190223185513 78 142 5.0 7.0 0.00 0.00 0.00 100 1017.9
20190223185013 77 171 3.0 7.0 0.00 0.00 0.00 100 1018.0
20190223184513 75 153 5.0 6.0 0.00 0.00 0.00 100 1018.1
20190223184013 75 162 2.0 7.0 0.00 0.00 0.00 100 1018.2
20190223183513 75 190 2.0 10.0 0.00 0.00 0.00 100 1018.2
20190223183013 76 126 5.0 10.0 0.00 0.00 0.00 100 1018.2
20190223182513 76 161 0.0 8.0 0.00 0.00 0.00 100 1018.3
20190223182013 76 141 2.0 9.0 0.00 0.00 0.00 100 1018.4
20190223181513 75 148 3.0 9.0 0.00 0.00 0.00 100 1018.6
20190223181012 77 130 4.0 8.0 0.00 0.00 0.00 100 1018.6
20190223180512 77 137 2.0 7.0 0.00 0.00 0.00 100 1018.6
20190223180012 77 122 7.0 7.0 0.00 0.00 0.00 100 1018.7
20190223175512 77 142 2.0 7.0 0.00 0.00 0.00 100 1018.8
20190223175011 78 143 5.0 7.0 0.00 0.00 0.00 100 1018.9
20190223174511 77 133 2.0 8.0 0.00 0.00 0.00 100 1019.0
20190223174011 78 134 1.0 8.0 0.00 0.00 0.00 100 1019.0
20190223173511 77 123 7.0 7.0 0.00 0.00 0.00 100 1019.1
20190223173011 78 140 5.0 7.0 0.00 0.00 0.00 100 1019.1
20190223172511 79 145 2.0 6.0 0.00 0.00 0.00 100 1019.3
20190223172011 79 132 2.0 6.0 0.00 0.00 0.00 100 1019.3
20190223171510 79 169 6.0 6.0 0.00 0.00 0.00 100 1019.4
20190223171011 79 149 3.0 7.0 0.00 0.00 0.00 100 1019.4
20190223170511 78 142 2.0 7.0 0.00 0.00 0.00 100 1019.6
20190223170010 77 142 3.0 7.0 0.00 0.00 0.00 100 1019.7
20190223165510 79 122 2.0 7.0 0.00 0.00 0.00 100 1019.8
20190223165010 79 138 4.0 7.0 0.00 0.00 0.00 100 1019.8
20190223164510 79 111 3.0 9.0 0.00 0.00 0.00 100 1019.8
20190223164010 79 128 4.0 9.0 0.00 0.00 0.00 100 1020.0
20190223163509 82 106 4.0 7.0 0.00 0.00 0.00 100 1020.0
20190223163010 84 175 2.0 7.0 0.00 0.00 0.00 100 1020.0
20190223162509 84 165 3.0 7.0 0.00 0.00 0.00 100 1020.1
20190223162009 85 189 3.0 8.0 0.00 0.00 0.00 100 1020.0
20190223161509 84 178 7.0 11.0 0.00 0.00 0.00 100 1020.0
20190223161009 84 168 3.0 11.0 0.00 0.00 0.00 100 1020.0
20190223160508 83 179 4.0 12.0 0.00 0.00 0.00 100 1020.1
20190223160009 82 167 2.0 12.0 0.00 0.00 0.00 100 1020.3
20190223155508 82 196 5.0 10.0 0.00 0.00 0.00 100 1020.4
20190223155008 81 191 2.0 9.0 0.00 0.00 0.00 100 1020.5
20190223154508 79 161 3.0 7.0 0.00 0.00 0.00 100 1020.6
20190223154008 77 196 5.0 6.0 0.00 0.00 0.00 100 1020.6
20190223153507 77 173 2.0 6.0 0.00 0.00 0.00 100 1020.5
20190223153008 77 130 2.0 5.0 0.00 0.00 0.00 100 1020.5
20190223152507 76 125 2.0 10.0 0.00 0.00 0.00 100 1020.5
20190223152007 76 172 1.0 10.0 0.00 0.00 0.00 100 1020.4
20190223151507 77 190 4.0 8.0 0.00 0.00 0.00 100 1020.5
20190223151007 76 168 2.0 5.0 0.00 0.00 0.00 100 1020.5
20190223150507 74 155 2.0 5.0 0.00 0.00 0.00 100 1020.6
20190223150007 74 150 2.0 5.0 0.00 0.00 0.00 100 1020.7
20190223145506 74 140 4.0 5.0 0.00 0.00 0.00 100 1020.7
20190223145007 75 142 1.0 4.0 0.00 0.00 0.00 100 1020.7
20190223144506 75 123 1.0 3.0 0.00 0.00 0.00 100 1020.7
20190223144007 74 92 3.0 3.0 0.00 0.00 0.00 100 1020.7
20190223143506 74 146 2.0 4.0 0.00 0.00 0.00 100 1020.7
20190223143006 74 181 3.0 4.0 0.00 0.00 0.00 100 1020.7
20190223142505 73 143 2.0 5.0 0.00 0.00 0.00 100 1020.7
20190223142005 73 145 3.0 5.0 0.00 0.00 0.00 100 1020.6
20190223141506 72 148 1.0 4.0 0.00 0.00 0.00 100 1020.6
20190223141006 72 145 1.0 4.0 0.00 0.00 0.00 100 1020.6
20190223140505 72 148 2.0 5.0 0.00 0.00 0.00 100 1020.7
20190223140005 71 147 2.0 5.0 0.00 0.00 0.00 100 1020.6
20190223135505 71 173 3.0 5.0 0.00 0.00 0.00 100 1020.6
20190223135004 71 140 2.0 5.0 0.00 0.00 0.00 100 1020.7
20190223134504 70 169 2.0 5.0 0.00 0.00 0.00 100 1020.7
20190223134004 70 150 2.0 3.0 0.00 0.00 0.00 100 1020.7
20190223133504 70 148 2.0 5.0 0.00 0.00 0.00 100 1020.6
20190223133004 70 148 3.0 5.0 0.00 0.00 0.00 100 1020.6
20190223132504 70 121 3.0 4.0 0.00 0.00 0.00 100 1020.7
20190223132004 69 171 2.0 3.0 0.00 0.00 0.00 100 1020.6
20190223131503 69 173 2.0 3.0 0.00 0.00 0.00 100 1020.6
20190223131004 69 148 2.0 3.0 0.00 0.00 0.00 100 1020.5
20190223130503 69 171 1.0 3.0 0.00 0.00 0.00 100 1020.5
20190223130003 69 148 1.0 3.0 0.00 0.00 0.00 100 1020.4
20190223125503 69 125 2.0 2.0 0.00 0.00 0.00 100 1020.4
20190223125003 68 121 1.0 2.0 0.00 0.00 0.00 100 1020.3
20190223124503 68 119 2.0 2.0 0.00 0.00 0.00 100 1020.3
20190223124003 68 119 1.0 2.0 0.00 0.00 0.00 100 1020.3
20190223123502 68 119 1.0 2.0 0.00 0.00 0.00 100 1020.3
20190223123002 68 115 1.0 3.0 0.00 0.00 0.00 100 1020.2
20190223122502 68 116 1.0 3.0 0.00 0.00 0.00 100 1020.2
20190223122002 68 103 1.0 3.0 0.00 0.00 0.00 100 1020.2
20190223121502 68 103 1.0 3.0 0.00 0.00 0.00 100 1020.3
20190223121002 68 101 1.0 2.0 0.00 0.00 0.00 100 1020.3
20190223120501 68 101 1.0 2.0 0.00 0.00 0.00 100 1020.2
20190223120002 68 101 0.0 2.0 0.00 0.00 0.00 100 1020.1
20190223115502 68 101 0.0 2.0 0.00 0.00 0.00 100 1020.0
20190223115001 68 101 1.0 2.0 0.00 0.00 0.00 100 1020.0
20190223114501 68 101 1.0 2.0 0.00 0.00 0.00 100 1019.9
20190223114001 68 101 1.0 2.0 0.00 0.00 0.00 100 1020.0
20190223113501 68 101 2.0 2.0 0.00 0.00 0.00 100 1020.0
20190223113001 68 101 1.0 2.0 0.00 0.00 0.00 100 1020.0
20190223112500 68 98 2.0 2.0 0.00 0.00 0.00 100 1020.0
20190223112000 68 98 2.0 2.0 0.00 0.00 0.00 100 1020.0
20190223111500 68 98 1.0 2.0 0.00 0.00 0.00 100 1020.0
20190223111000 68 98 1.0 2.0 0.00 0.00 0.00 100 1019.9
20190223110500 68 97 0.0 2.0 0.00 0.00 0.00 100 1019.9
20190223110000 68 97 1.0 2.0 0.00 0.00 0.00 100 1019.9
20190223105529 68 97 0.0 1.0 0.00 0.00 0.00 100 1019.9
20190223104959 68 97 1.0 2.0 0.00 0.00 0.00 100 1019.8
20190223104459 68 97 0.0 2.0 0.00 0.00 0.00 100 1019.8
20190223103959 68 97 0.0 2.0 0.00 0.00 0.00 100 1019.7
20190223103500 68 97 1.0 2.0 0.00 0.00 0.00 100 1019.7
20190223102959 68 68 1.0 2.0 0.00 0.00 0.00 100 1019.7
20190223102529 68 68 1.0 2.0 0.00 0.00 0.00 100 1019.6
20190223101959 68 68 1.0 2.0 0.00 0.00 0.00 100 1019.7
20190223101458 68 68 0.0 2.0 0.00 0.00 0.00 100 1019.6
20190223100958 68 68 2.0 2.0 0.00 0.00 0.00 100 1019.5
20190223100458 68 68 1.0 1.0 0.00 0.00 0.00 100 1019.5
20190223095958 68 68 1.0 3.0 0.00 0.00 0.00 100 1019.6
20190223095458 68 68 0.0 3.0 0.00 0.00 0.00 100 1019.6
20190223094958 68 68 2.0 2.0 0.00 0.00 0.00 100 1019.6
20190223094458 68 68 0.0 2.0 0.00 0.00 0.00 100 1019.6
20190223093957 68 68 0.0 2.0 0.00 0.00 0.00 100 1019.6
20190223093527 68 68 1.0 1.0 0.00 0.00 0.00 100 1019.6
20190223092957 68 68 0.0 1.0 0.00 0.00 0.00 100 1019.7
20190223092527 68 68 1.0 1.0 0.00 0.00 0.00 100 1019.7
20190223092027 68 68 0.0 2.0 0.00 0.00 0.00 100 1019.6
20190223091527 68 68 0.0 2.0 0.00 0.00 0.00 100 1019.6
20190223090956 68 68 0.0 2.0 0.00 0.00 0.00 100 1019.6
20190223090526 68 69 1.0 2.0 0.00 0.00 0.00 100 1019.5
20190223090026 68 68 2.0 2.0 0.00 0.00 0.00 100 1019.4
20190223085456 68 68 0.0 2.0 0.00 0.00 0.00 100 1019.4
20190223085026 68 68 2.0 2.0 0.00 0.00 0.00 100 1019.4
20190223084456 68 68 1.0 3.0 0.00 0.00 0.00 100 1019.4
20190223084026 68 70 1.0 3.0 0.00 0.00 0.00 100 1019.4
20190223083526 68 71 2.0 3.0 0.00 0.00 0.00 100 1019.4
20190223083025 68 71 2.0 2.0 0.00 0.00 0.00 100 1019.5
20190223082455 68 102 1.0 2.0 0.00 0.00 0.00 100 1019.4
20190223081955 68 102 2.0 3.0 0.00 0.00 0.00 100 1019.5
20190223081525 68 102 0.0 3.0 0.00 0.00 0.00 100 1019.5
20190223081025 68 102 1.0 2.0 0.00 0.00 0.00 100 1019.5
20190223080524 68 102 0.0 2.0 0.00 0.00 0.00 100 1019.5
20190223080024 68 102 1.0 2.0 0.00 0.00 0.00 100 1019.5
20190223075524 68 102 0.0 1.0 0.00 0.00 0.00 100 1019.5
20190223074954 68 102 0.0 2.0 0.00 0.00 0.00 100 1019.5
20190223074524 69 102 1.0 2.0 0.00 0.00 0.00 100 1019.5
20190223073954 69 102 0.0 3.0 0.00 0.00 0.00 100 1019.5
20190223073524 69 91 1.0 3.0 0.00 0.00 0.00 100 1019.5
20190223073024 69 107 1.0 3.0 0.00 0.00 0.00 100 1019.5
20190223072524 69 109 1.0 3.0 0.00 0.00 0.00 100 1019.6
20190223072023 69 132 1.0 3.0 0.00 0.00 0.00 100 1019.6
20190223071523 69 132 1.0 2.0 0.00 0.00 0.00 100 1019.6
20190223071023 69 132 1.0 2.0 0.00 0.00 0.00 100 1019.7
20190223070523 69 134 1.0 3.0 0.00 0.00 0.00 100 1019.8
20190223070023 70 172 1.0 3.0 0.00 0.00 0.00 100 1019.9
20190223065523 70 136 2.0 3.0 0.00 0.00 0.00 100 1019.9
20190223065022 70 154 0.0 3.0 0.00 0.00 0.00 100 1020.0
20190223064522 70 154 1.0 3.0 0.00 0.00 0.00 100 1020.0
20190223064022 70 140 1.0 3.0 0.00 0.00 0.00 100 1020.0
20190223063522 70 142 1.0 3.0 0.00 0.00 0.00 100 1020.0
20190223063022 70 169 1.0 4.0 0.00 0.00 0.00 100 1020.1
20190223062522 70 161 2.0 4.0 0.00 0.00 0.00 100 1020.0
20190223062022 70 130 2.0 4.0 0.00 0.00 0.00 100 1020.0
20190223061521 70 154 2.0 5.0 0.00 0.00 0.00 100 1020.2
20190223061022 70 144 3.0 5.0 0.00 0.00 0.00 100 1020.1
20190223060521 69 167 2.0 4.0 0.00 0.00 0.00 100 1020.2
20190223060021 69 157 3.0 4.0 0.00 0.00 0.00 100 1020.2
20190223055521 69 152 2.0 5.0 0.00 0.00 0.00 100 1020.3
20190223055021 69 155 1.0 5.0 0.00 0.00 0.00 100 1020.3
20190223054521 69 148 2.0 4.0 0.00 0.00 0.00 100 1020.3
20190223054021 69 180 2.0 4.0 0.00 0.00 0.00 100 1020.3
20190223053520 69 144 1.0 3.0 0.00 0.00 0.00 100 1020.4
20190223053020 69 161 1.0 3.0 0.00 0.00 0.00 100 1020.4
20190223052520 68 161 1.0 4.0 0.00 0.00 0.00 100 1020.4
20190223052020 68 169 2.0 4.0 0.00 0.00 0.00 100 1020.3
20190223051519 68 160 1.0 4.0 0.00 0.00 0.00 100 1020.3
20190223051020 68 142 2.0 4.0 0.00 0.00 0.00 100 1020.4
20190223050520 68 144 1.0 3.0 0.00 0.00 0.00 100 1020.4
20190223050020 68 158 2.0 3.0 0.00 0.00 0.00 100 1020.4
20190223045519 68 158 1.0 3.0 0.00 0.00 0.00 100 1020.5
20190223045019 68 153 2.0 2.0 0.00 0.00 0.00 100 1020.6
20190223044519 68 153 2.0 2.0 0.00 0.00 0.00 100 1020.7
20190223044020 68 153 1.0 2.0 0.00 0.00 0.00 100 1020.8
20190223043518 68 153 1.0 1.0 0.00 0.00 0.00 100 1020.9
20190223043019 68 153 0.0 1.0 0.00 0.00 0.00 100 1020.9
20190223042518 68 153 1.0 1.0 0.00 0.00 0.00 100 1021.0
20190223042019 68 153 0.0 0.0 0.00 0.00 0.00 100 1021.0
20190223041518 68 153 0.0 0.0 0.00 0.01 0.00 100 1021.0
20190223041018 68 153 0.0 1.0 0.00 0.01 0.00 100 1021.0
20190223040517 68 153 0.0 1.0 0.00 0.01 0.00 100 1021.1
20190223040018 68 153 0.0 1.0 0.00 0.01 0.00 100 1021.1
20190223035517 69 153 0.0 2.0 0.00 0.01 0.00 100 1021.1
20190223035017 69 153 0.0 2.0 0.00 0.01 0.00 100 1021.2
20190223034517 69 153 1.0 2.0 0.00 0.01 0.00 100 1021.2
20190223034017 69 153 2.0 2.0 0.00 0.01 0.00 100 1021.3
20190223033517 69 153 0.0 1.0 0.00 0.01 0.00 100 1021.2
20190223033024 69 153 0.0 1.0 0.00 0.01 0.00 100 1021.3
20190223032516 69 153 0.0 1.0 0.00 0.01 0.00 100 1021.2
20190223032017 69 153 0.0 2.0 0.00 0.01 0.00 100 1021.2
20190223031516 69 153 0.0 2.0 0.00 0.01 0.00 100 1021.2
20190223031016 69 153 1.0 2.0 0.00 0.01 0.00 100 1021.3
20190223030516 69 153 1.0 1.0 0.00 0.01 0.00 100 1021.3
20190223030016 69 153 1.0 1.0 0.00 0.01 0.00 100 1021.3
20190223025516 69 153 1.0 1.0 0.00 0.01 0.00 100 1021.3
20190223025015 69 153 1.0 2.0 0.00 0.01 0.00 100 1021.3
20190223024515 69 153 1.0 2.0 0.00 0.01 0.00 100 1021.4
20190223024016 69 153 1.0 2.0 0.00 0.01 0.00 100 1021.4
20190223023515 69 153 1.0 2.0 0.00 0.01 0.00 100 1021.3
20190223023015 69 153 1.0 2.0 0.00 0.01 0.00 100 1021.4
20190223022515 69 153 1.0 1.0 0.00 0.01 0.00 100 1021.4
20190223022014 69 153 1.0 1.0 0.00 0.01 0.00 100 1021.4
20190223021515 69 153 0.0 1.0 0.00 0.01 0.00 100 1021.3
20190223021015 69 153 0.0 1.0 0.00 0.01 0.00 100 1021.3
20190223020514 69 153 0.0 2.0 0.00 0.01 0.00 100 1021.2
20190223020014 69 153 0.0 2.0 0.00 0.01 0.00 100 1021.2
20190223015514 69 153 1.0 2.0 0.00 0.01 0.00 100 1021.1
20190223015014 69 153 0.0 3.0 0.00 0.01 0.00 100 1021.1
20190223014513 69 153 2.0 3.0 0.00 0.01 0.00 100 1021.1
20190223014013 70 150 1.0 3.0 0.00 0.01 0.00 100 1021.1
20190223013513 70 147 2.0 2.0 0.00 0.01 0.00 100 1021.0
20190223013013 70 147 1.0 2.0 0.00 0.01 0.00 100 1021.0
20190223012513 70 147 1.0 2.0 0.00 0.01 0.00 100 1021.0
20190223012013 70 147 0.0 2.0 0.00 0.01 0.00 100 1021.0
20190223011513 70 147 0.0 2.0 0.00 0.01 0.00 100 1021.0
20190223011013 70 147 1.0 2.0 0.00 0.01 0.00 100 1020.9
20190223010512 70 147 0.0 2.0 0.00 0.01 0.00 100 1020.9
20190223010012 70 147 1.0 2.0 0.00 0.01 0.00 100 1020.9
20190223005512 70 147 1.0 2.0 0.00 0.01 0.00 100 1020.9
20190223005012 70 147 0.0 1.0 0.00 0.01 0.00 100 1020.8
20190223004512 70 147 0.0 2.0 0.00 0.01 0.00 100 1020.8
20190223004012 71 147 1.0 2.0 0.00 0.01 0.00 100 1020.8
20190223003511 71 147 2.0 2.0 0.00 0.01 0.00 100 1020.7
20190223003011 71 147 0.0 3.0 0.00 0.01 0.00 100 1020.7
20190223002511 71 147 1.0 3.0 0.00 0.01 0.00 100 1020.6
20190223002011 71 147 0.0 2.0 0.00 0.01 0.00 100 1020.5
20190223001511 71 147 0.0 2.0 0.00 0.01 0.00 100 1020.5
20190223001011 71 147 0.0 3.0 0.00 0.01 0.00 100 1020.5
20190223000512 72 147 1.0 3.0 0.00 0.01 0.00 100 1020.3
20190223000010 72 147 1.0 3.0 0.00 0.01 0.00 100 1020.3
20190222235511 72 148 1.0 3.0 0.00 0.01 0.00 100 1020.3
20190222235010 72 148 1.0 3.0 0.00 0.01 0.00 100 1020.2
20190222234511 72 148 0.0 2.0 0.00 0.01 0.00 100 1020.2
20190222234010 73 148 1.0 4.0 0.00 0.01 0.00 100 1020.2
20190222233510 73 148 1.0 4.0 0.00 0.01 0.00 100 1020.2